Weather History for Kozani, Greece

Change the Weather History Date:

Monday, February 27, 2012

  Actual Average Record
Temperature  
Mean Temperature 30 °F -  
Max Temperature 35 °F - - ()
Min Temperature 26 °F - - ()
Degree Days  
Heating Degree Days 34    
Moisture  
Dew Point 25 °F    
Average Humidity 77    
Maximum Humidity 93    
Minimum Humidity 55    
Precipitation  
Precipitation 0.00 in - - ()
Sea Level Pressure  
Sea Level Pressure 29.78 in    
Wind  
Wind Speed 13 mph ()    
Max Wind Speed 23 mph    
Max Gust Speed 38 mph    
Visibility 2.2 miles    
Events Snow    
T = Trace of Precipitation, MM = Missing Value Source: Averaged Metar Reports

Daily Weather History Graph

Daily Weather History Graph

Search for Another Location

Airport:

Trip Planner

Search our weather history database for the weather conditions in past years. The results will help you decide how hot, cold, wet, or windy it might be!

Date:

Astronomy

Feb. 27, 2012 Rise Set
Actual Time 7:10 AM EET 6:21 PM EET
Civil Twilight 6:43 AM EET 6:48 PM EET
Nautical Twilight 6:11 AM EET 7:20 PM EET
Astronomical Twilight 5:40 AM EET 7:51 PM EET
Moon 9:27 AM EET (2/27) 11:58 PM EET (2/27)
Length of Visible Light 12h 05m
Length of Day
11h 10m
Waxing Crescent, 26% of the Moon is Illuminated
Feb 27
Waxing Crescent
Mar 1
First Quarter
Mar 8
Full
Mar 15
Last Quarter
Mar 22
New

Hourly Weather History & Observations

Time (EET) Temp. Windchill Dew Point Humidity Pressure Visibility Wind Dir Wind Speed Gust Speed Precip Events Conditions
12:20 AM 33.8 °F 24.3 °F 32.0 °F 93% 29.71 in - North 13.8 mph - N/A   Unknown
12:50 AM 33.8 °F 24.3 °F 32.0 °F 93% 29.71 in - NNW 13.8 mph - N/A   Unknown
1:20 AM 33.8 °F 24.3 °F 32.0 °F 93% 29.71 in - NNW 13.8 mph - N/A   Unknown
1:50 AM 33.8 °F 23.9 °F 32.0 °F 93% 29.71 in - NNW 15.0 mph - N/A   Unknown
2:20 AM 33.8 °F 23.5 °F 30.2 °F 87% 29.71 in - NNW 16.1 mph - N/A   Unknown
2:50 AM 32.0 °F 21.2 °F 30.2 °F 93% 29.71 in - NNW 16.1 mph - N/A   Unknown
3:20 AM 32.0 °F 21.6 °F 30.2 °F 93% 29.71 in - NNW 15.0 mph - N/A   Unknown
3:50 AM 32.0 °F 21.6 °F 30.2 °F 93% 29.71 in - NW 15.0 mph - N/A   Unknown
4:20 AM 32.0 °F 21.2 °F 30.2 °F 93% 29.71 in - NNW 16.1 mph - N/A   Unknown
4:50 AM 32.0 °F 21.2 °F 30.2 °F 93% 29.71 in - NW 16.1 mph - N/A   Unknown
5:20 AM 32.0 °F 21.6 °F 30.2 °F 93% 29.71 in - NW 15.0 mph - N/A   Unknown
5:50 AM 32.0 °F 21.6 °F 30.2 °F 93% 29.71 in - NNW 15.0 mph - N/A   Unknown
6:20 AM 32.0 °F 22.1 °F 30.2 °F 93% 29.71 in - NW 13.8 mph - N/A   Unknown
6:50 AM 32.0 °F 21.6 °F 30.2 °F 93% 29.71 in - NNW 15.0 mph - N/A   Unknown
7:20 AM 32.0 °F 21.6 °F 30.2 °F 93% 29.71 in - NNW 15.0 mph - N/A   Unknown
7:50 AM 32.0 °F 22.1 °F 30.2 °F 93% 29.71 in 1.9 mi WNW 13.8 mph - N/A Snow Light Snow
8:50 AM 32.0 °F 22.1 °F 30.2 °F 93% 29.74 in 1.6 mi NW 13.8 mph - N/A Snow Snow
9:50 AM 32.0 °F 22.5 °F 30.2 °F 93% 29.74 in 0.7 mi NW 12.7 mph - N/A Snow Heavy Snow
10:50 AM 32.0 °F 22.1 °F 30.2 °F 93% 29.77 in 0.6 mi NW 13.8 mph - N/A Snow Snow
11:50 AM 32.0 °F 23.0 °F 28.4 °F 87% 29.77 in 1.9 mi NW 11.5 mph - N/A Snow Light Snow
12:50 PM 33.8 °F 24.3 °F 26.6 °F 75% 29.77 in 4.3 mi NW 13.8 mph - N/A   Overcast
1:50 PM 33.8 °F 24.8 °F 24.8 °F 70% 29.77 in 4.3 mi NNW 12.7 mph - N/A   Overcast
2:20 PM 33.8 °F 24.8 °F 24.8 °F 70% 29.77 in - NW 12.7 mph - N/A   Unknown
2:50 PM 33.8 °F 25.3 °F 24.8 °F 70% 29.77 in - NNW 11.5 mph - N/A   Unknown
3:20 PM 35.6 °F 27.5 °F 24.8 °F 65% 29.77 in - NW 11.5 mph - N/A   Unknown
3:50 PM 33.8 °F 24.8 °F 24.8 °F 70% 29.77 in - NNW 12.7 mph - N/A   Unknown
4:20 PM 33.8 °F 24.3 °F 24.8 °F 70% 29.80 in - NW 13.8 mph - N/A   Unknown
4:50 PM 33.8 °F 23.5 °F 23.0 °F 65% 29.80 in - NW 16.1 mph - N/A   Unknown
5:20 PM 33.8 °F 24.3 °F 23.0 °F 65% 29.80 in - NW 13.8 mph - N/A   Unknown
5:50 PM 32.0 °F 22.1 °F 21.2 °F 64% 29.80 in - NNW 13.8 mph - N/A   Unknown
6:20 PM 32.0 °F 22.1 °F 21.2 °F 64% 29.83 in - NW 13.8 mph - N/A   Unknown
6:50 PM 32.0 °F 22.1 °F 19.4 °F 60% 29.83 in - NW 13.8 mph - N/A   Unknown
7:20 PM 30.2 °F 20.2 °F 19.4 °F 64% 29.83 in - NNW 12.7 mph - N/A   Unknown
7:50 PM 30.2 °F 19.8 °F 17.6 °F 60% 29.83 in - NW 13.8 mph - N/A   Unknown
8:20 PM 28.4 °F 17.5 °F 17.6 °F 64% 29.86 in - NNW 13.8 mph - N/A   Unknown
8:50 PM 28.4 °F 17.0 °F 15.8 °F 59% 29.86 in - NW 15.0 mph - N/A   Unknown
9:20 PM 28.4 °F 15.8 °F 15.8 °F 59% 29.86 in - NW 18.4 mph - N/A   Unknown
9:50 PM 28.4 °F 15.1 °F 14.0 °F 55% 29.89 in - NW 20.7 mph 32.2 mph N/A   Unknown
10:20 PM 28.4 °F 15.1 °F 14.0 °F 55% 29.89 in - NNW 20.7 mph 35.7 mph N/A   Unknown
10:50 PM 28.4 °F 15.4 °F 14.0 °F 55% 29.89 in - NW 19.6 mph 34.5 mph N/A   Unknown
11:20 PM 26.6 °F 12.4 °F 14.0 °F 59% 29.92 in - NNW 21.9 mph 34.5 mph N/A   Unknown
11:50 PM 26.6 °F 12.0 °F 14.0 °F 59% 29.92 in - NW 23.0 mph 38.0 mph N/A   Unknown